DW1779 Weather Reports


Display with metric or nautical units.
time (UTC)temp
F
wind
direction
speed
MPH
gust
MPH
rain 1hr
in
rain 24hr
in
rain mn
in
humidity
%
barometer
mb
20260502164053 58 300 6.0 15.0 0.00 0.00 0.00 48 1020.6
20260502163553 57 21 8.0 15.0 0.00 0.00 0.00 50 1020.7
20260502163107 57 348 6.0 14.0 0.00 0.00 0.00 51 1020.7
20260502162550 59 5 8.0 15.0 0.00 0.00 0.00 53 1020.6
20260502162049 58 28 7.0 15.0 0.00 0.00 0.00 47 1020.5
20260502161548 59 331 5.0 14.0 0.00 0.00 0.00 52 1020.5
20260502161048 57 16 6.0 14.0 0.00 0.00 0.00 53 1020.4
20260502160647 55 296 6.0 18.0 0.00 0.00 0.00 51 1020.6
20260502152046 55 344 6.0 17.0 0.00 0.00 0.00 61 1020.4
20260502151545 56 355 4.0 13.0 0.00 0.00 0.00 62 1020.3
20260502151046 56 340 3.0 9.0 0.00 0.00 0.00 68 1020.3
20260502150642 55 351 4.0 9.0 0.00 0.00 0.00 66 1020.3
20260502130506 44 23 1.0 7.0 0.00 0.00 0.00 91 1019.8
20260502123603 42 310 0.0 3.0 0.00 0.00 0.00 95 1019.6
20260502123105 41 325 0.0 0.0 0.00 0.00 0.00 95 1019.6
20260502122556 41 315 0.0 0.0 0.00 0.00 0.00 95 1019.4
20260502122055 40 306 0.0 0.0 0.00 0.00 0.00 96 1019.3
20260502121559 40 310 0.0 0.0 0.00 0.00 0.00 95 1019.3
20260502121054 40 310 0.0 0.0 0.00 0.00 0.00 96 1019.3
20260502120654 40 313 0.0 0.0 0.00 0.00 0.00 96 1019.1
20260502115601 39 313 0.0 0.0 0.00 0.00 0.00 95 1018.9
20260502115057 39 313 0.0 0.0 0.00 0.00 0.00 96 1019.0
20260502114556 39 313 0.0 0.0 0.00 0.00 0.00 96 1018.8
20260502114055 39 313 0.0 0.0 0.00 0.00 0.00 95 1018.8
20260502113556 39 313 0.0 0.0 0.00 0.00 0.00 95 1018.7
20260502113055 38 313 0.0 0.0 0.00 0.00 0.00 95 1018.6
20260502112551 38 313 0.0 0.0 0.00 0.00 0.00 95 1018.5
20260502112050 38 313 0.0 0.0 0.00 0.00 0.00 95 1018.5
20260502111551 38 313 0.0 0.0 0.00 0.00 0.00 95 1018.3
20260502111052 38 313 0.0 0.0 0.00 0.00 0.00 95 1018.3
20260502110650 38 313 0.0 0.0 0.00 0.00 0.00 95 1018.3
20260502110046 38 313 0.0 0.0 0.00 0.00 0.00 95 1018.3
20260502105545 38 313 0.0 0.0 0.00 0.00 0.00 95 1018.2
20260502105045 39 313 0.0 0.0 0.00 0.00 0.00 95 1018.1
20260502104545 39 313 0.0 0.0 0.00 0.00 0.00 95 1018.0
20260502104045 39 313 0.0 0.0 0.00 0.00 0.00 95 1017.9
20260502103545 39 313 0.0 0.0 0.00 0.00 0.00 95 1018.0
20260502103045 39 313 0.0 0.0 0.00 0.00 0.00 95 1017.9
20260502102544 39 313 0.0 0.0 0.00 0.00 0.00 95 1017.9
20260502102044 39 313 0.0 0.0 0.00 0.00 0.00 95 1017.9
20260502101544 38 313 0.0 0.0 0.00 0.00 0.00 95 1017.9
20260502101043 38 313 0.0 0.0 0.00 0.00 0.00 95 1017.8
20260502100644 38 313 0.0 0.0 0.00 0.00 0.00 95 1017.7
20260502091037 38 313 0.0 0.0 0.00 0.00 0.00 95 1017.6
20260502090637 38 313 0.0 0.0 0.00 0.00 0.00 95 1017.6
20260502071050 40 313 0.0 0.0 0.00 0.00 0.00 95 1018.1
20260502070649 40 313 0.0 0.0 0.00 0.00 0.00 94 1018.2
20260502070056 40 313 0.0 0.0 0.00 0.00 0.00 94 1018.1
20260502065551 40 313 0.0 0.0 0.00 0.00 0.00 94 1018.0
20260502065050 40 313 0.0 0.0 0.00 0.00 0.00 94 1017.9
20260502064550 40 313 0.0 0.0 0.00 0.00 0.00 94 1018.0
20260502064050 40 313 0.0 0.0 0.00 0.00 0.00 94 1018.0
20260502063552 40 313 0.0 0.0 0.00 0.00 0.00 94 1018.1
20260502063049 40 313 0.0 0.0 0.00 0.00 0.00 94 1018.1
20260502062548 40 313 0.0 0.0 0.00 0.00 0.00 94 1018.1
20260502062051 40 313 0.0 0.0 0.00 0.00 0.00 94 1018.1
20260502061548 40 313 0.0 0.0 0.00 0.00 0.00 94 1018.1
20260502061047 40 313 0.0 0.0 0.00 0.00 0.00 94 1018.1
20260502060648 40 313 0.0 0.0 0.00 0.00 0.00 94 1018.1
20260502060048 40 313 0.0 0.0 0.00 0.00 0.00 94 1018.1
20260502055548 40 313 0.0 0.0 0.00 0.00 0.00 94 1018.1
20260502055045 40 313 0.0 0.0 0.00 0.00 0.00 94 1018.0
20260502054553 40 313 0.0 0.0 0.00 0.00 0.00 94 1017.9
20260502054045 40 313 0.0 0.0 0.00 0.00 0.00 94 1017.9
20260502053544 40 313 0.0 0.0 0.00 0.00 0.00 93 1017.9
20260502053044 40 313 0.0 0.0 0.00 0.00 0.00 93 1017.9
20260502052545 40 313 0.0 0.0 0.00 0.00 0.00 93 1017.9
20260502052045 41 313 0.0 0.0 0.00 0.00 0.00 93 1017.9
20260502051543 41 313 0.0 0.0 0.00 0.00 0.00 93 1018.0
20260502051041 41 313 0.0 0.0 0.00 0.00 0.00 93 1018.0
20260502050641 41 313 0.0 0.0 0.00 0.00 0.00 93 1018.0
20260502050047 41 313 0.0 0.0 0.00 0.00 0.00 93 1018.0
20260502045542 41 313 0.0 0.0 0.00 0.00 0.00 93 1018.1
20260502045041 41 313 0.0 0.0 0.00 0.00 0.00 93 1018.1
20260502044547 41 313 0.0 0.0 0.00 0.00 0.00 92 1018.0
20260502044039 41 313 0.0 0.0 0.00 0.00 0.00 92 1018.2
20260502043539 41 313 0.0 0.0 0.00 0.00 0.00 92 1018.2
20260502043047 42 313 0.0 0.0 0.00 0.00 0.00 91 1018.1
20260502042540 42 313 0.0 0.0 0.00 0.00 0.00 91 1018.2
20260502042039 42 313 0.0 0.0 0.00 0.00 0.00 91 1018.2
20260502041546 42 313 0.0 0.0 0.00 0.00 0.00 91 1018.3
20260502041038 42 313 0.0 0.0 0.00 0.00 0.00 90 1018.3
20260502040638 42 313 0.0 0.0 0.00 0.00 0.00 90 1018.3
20260502040035 43 313 0.0 0.0 0.00 0.00 0.00 90 1018.4
20260502035534 43 313 0.0 0.0 0.00 0.00 0.00 89 1018.4
20260502035034 43 313 0.0 0.0 0.00 0.00 0.00 89 1018.5
20260502034538 44 313 0.0 0.0 0.00 0.00 0.00 89 1018.6
20260502034035 44 313 0.0 0.0 0.00 0.00 0.00 89 1018.6
20260502033535 44 313 0.0 0.0 0.00 0.00 0.00 89 1018.6
20260502033034 44 313 0.0 0.0 0.00 0.00 0.00 89 1018.6
20260502032533 43 313 0.0 0.0 0.00 0.00 0.00 90 1018.7
20260502032033 43 313 0.0 0.0 0.00 0.00 0.00 91 1018.7
20260502031533 43 313 0.0 0.0 0.00 0.00 0.00 90 1018.7
20260502031033 43 313 0.0 0.0 0.00 0.00 0.00 90 1018.7
20260502030633 43 313 0.0 0.0 0.00 0.00 0.00 90 1018.7
20260502030052 43 313 0.0 0.0 0.00 0.00 0.00 90 1018.8
20260502025551 43 313 0.0 0.0 0.00 0.00 0.00 89 1018.8
20260502025051 43 313 0.0 0.0 0.00 0.00 0.00 89 1018.9
20260502024553 43 313 0.0 0.0 0.00 0.00 0.00 89 1018.9
20260502024051 43 313 0.0 0.0 0.00 0.00 0.00 88 1018.8
20260502023551 43 313 0.0 0.0 0.00 0.00 0.00 87 1018.8
20260502023051 44 313 0.0 0.0 0.00 0.00 0.00 86 1018.7
20260502022551 44 313 0.0 0.0 0.00 0.00 0.00 86 1018.7
20260502022050 44 313 0.0 0.0 0.00 0.00 0.00 85 1018.6
20260502021551 44 313 0.0 0.0 0.00 0.00 0.00 85 1018.4
20260502021050 44 313 0.0 0.0 0.00 0.00 0.00 85 1018.4
20260502020650 45 313 0.0 0.0 0.00 0.00 0.00 85 1018.4
20260502020047 45 313 0.0 0.0 0.00 0.00 0.00 84 1018.3
20260502015547 45 313 0.0 0.0 0.00 0.00 0.00 83 1018.3
20260502015046 46 313 0.0 0.0 0.00 0.00 0.00 83 1018.2
20260502014555 46 313 0.0 0.0 0.00 0.00 0.00 82 1018.2
20260502014046 47 313 0.0 0.0 0.00 0.00 0.00 80 1017.9
20260502013547 47 313 0.0 0.0 0.00 0.00 0.00 78 1017.9
20260502013052 47 313 0.0 0.0 0.00 0.00 0.00 79 1017.7
20260502012546 48 313 0.0 0.0 0.00 0.00 0.00 78 1017.7
20260502012046 48 313 0.0 0.0 0.00 0.00 0.00 74 1017.6
20260502011549 49 313 0.0 0.0 0.00 0.00 0.00 74 1017.4
20260502011046 49 313 0.0 0.0 0.00 0.00 0.00 73 1017.3
20260502010647 50 313 0.0 0.0 0.00 0.00 0.00 73 1017.2
20260502010044 51 313 0.0 0.0 0.00 0.00 0.00 70 1017.3
20260502005544 51 313 0.0 0.0 0.00 0.00 0.00 69 1017.1
20260502005044 52 313 0.0 0.0 0.00 0.00 0.00 64 1017.2
20260502004546 53 313 0.0 0.0 0.00 0.00 0.00 62 1017.1
20260502004046 54 313 0.0 0.0 0.00 0.00 0.00 62 1017.1
20260502003543 54 313 0.0 0.0 0.00 0.00 0.00 59 1017.2
20260502003043 55 313 0.0 0.0 0.00 0.00 0.00 57 1017.0
20260502002542 56 313 0.0 1.0 0.00 0.00 0.00 55 1016.9
20260502002044 58 315 0.0 2.0 0.00 0.00 0.00 47 1016.9
20260502001543 58 306 0.0 3.0 0.00 0.00 0.00 49 1016.8
20260502001044 58 344 0.0 3.0 0.00 0.00 0.00 48 1016.8
20260502000643 58 339 0.0 4.0 0.00 0.00 0.00 47 1016.8
20260502000104 59 314 1.0 5.0 0.00 0.00 0.00 47 1016.8
20260501235551 59 292 1.0 6.0 0.00 0.00 0.00 44 1016.9
20260501235052 59 9 1.0 8.0 0.00 0.00 0.00 43 1016.9
20260501234552 59 288 1.0 8.0 0.00 0.00 0.00 40 1016.8
20260501234052 59 285 2.0 6.0 0.00 0.00 0.00 42 1016.9
20260501233552 59 311 2.0 8.0 0.00 0.00 0.00 42 1016.9
20260501233052 59 294 2.0 8.0 0.00 0.00 0.00 44 1017.0
20260501232553 60 295 3.0 9.0 0.00 0.00 0.00 45 1016.9
20260501232050 60 283 4.0 13.0 0.00 0.00 0.00 40 1016.7
20260501231552 60 315 3.0 13.0 0.00 0.00 0.00 42 1016.8
20260501231051 60 333 5.0 11.0 0.00 0.00 0.00 41 1016.8
20260501230653 60 349 4.0 10.0 0.00 0.00 0.00 41 1016.8
20260501230050 60 63 2.0 11.0 0.00 0.00 0.00 42 1016.7
20260501225550 60 360 3.0 11.0 0.00 0.00 0.00 46 1016.7
20260501225049 60 322 3.0 11.0 0.00 0.00 0.00 42 1016.7
20260501224549 60 268 4.0 11.0 0.00 0.00 0.00 40 1016.6
20260501224049 60 19 5.0 11.0 0.00 0.00 0.00 39 1016.5
20260501223549 60 344 5.0 11.0 0.00 0.00 0.00 42 1016.5
20260501223049 60 314 5.0 11.0 0.00 0.00 0.00 44 1016.5
20260501222548 60 345 3.0 13.0 0.00 0.00 0.00 42 1016.4
20260501222047 60 286 6.0 14.0 0.00 0.00 0.00 42 1016.4
20260501221547 61 322 7.0 14.0 0.00 0.00 0.00 40 1016.3
20260501221046 61 346 5.0 12.0 0.00 0.00 0.00 41 1016.5
20260501220649 61 304 4.0 11.0 0.00 0.00 0.00 40 1016.5
20260501220057 61 323 6.0 11.0 0.00 0.00 0.00 42 1016.5
20260501215552 61 288 4.0 13.0 0.00 0.00 0.00 43 1016.6
20260501215051 61 292 5.0 11.0 0.00 0.00 0.00 40 1016.7
20260501214551 61 330 5.0 12.0 0.00 0.00 0.00 42 1016.9
20260501214051 61 5 6.0 12.0 0.00 0.00 0.00 38 1016.8
20260501213552 61 305 4.0 10.0 0.00 0.00 0.00 38 1016.9
20260501213051 60 311 3.0 11.0 0.00 0.00 0.00 41 1017.0
20260501212548 60 348 2.0 11.0 0.00 0.00 0.00 40 1017.0
20260501212047 62 321 6.0 13.0 0.00 0.00 0.00 40 1017.1
20260501211547 62 309 4.0 13.0 0.00 0.00 0.00 41 1017.3
20260501211046 62 338 3.0 10.0 0.00 0.00 0.00 42 1017.4
20260501210645 61 321 4.0 10.0 0.00 0.00 0.00 42 1017.5
20260501210046 60 223 3.0 8.0 0.00 0.00 0.00 38 1017.6
20260501205550 60 281 3.0 10.0 0.00 0.00 0.00 44 1017.6
20260501205044 60 355 4.0 8.0 0.00 0.00 0.00 38 1017.7
20260501204544 61 301 2.0 11.0 0.00 0.00 0.00 40 1017.9
20260501204046 61 11 4.0 11.0 0.00 0.00 0.00 42 1017.9
20260501203543 61 323 3.0 13.0 0.00 0.00 0.00 45 1018.0
20260501203043 61 318 6.0 13.0 0.00 0.00 0.00 40 1018.1
20260501202547 61 360 4.0 11.0 0.00 0.00 0.00 44 1018.3
20260501202041 60 311 5.0 10.0 0.00 0.00 0.00 40 1018.2
20260501201553 60 38 3.0 8.0 0.00 0.00 0.00 39 1018.3
20260501201041 60 325 3.0 8.0 0.00 0.00 0.00 45 1018.3
20260501200640 61 296 3.0 7.0 0.00 0.00 0.00 42 1018.4
20260501200038 58 323 1.0 5.0 0.00 0.00 0.00 45 1018.6
20260501195538 58 318 2.0 10.0 0.00 0.00 0.00 43 1018.7
20260501195039 60 301 3.0 10.0 0.00 0.00 0.00 40 1018.8
20260501194544 61 267 3.0 9.0 0.00 0.00 0.00 37 1018.7
20260501194038 60 333 4.0 9.0 0.00 0.00 0.00 43 1018.8
20260501193538 58 296 0.0 7.0 0.00 0.00 0.00 47 1018.9
20260501193037 58 348 1.0 10.0 0.00 0.00 0.00 43 1018.9
20260501192537 58 283 4.0 10.0 0.00 0.00 0.00 42 1018.9
20260501192037 60 286 3.0 10.0 0.00 0.00 0.00 43 1019.0
20260501191537 61 348 4.0 11.0 0.00 0.00 0.00 39 1019.0
20260501191038 61 340 6.0 12.0 0.00 0.00 0.00 44 1019.1
20260501190638 61 304 7.0 12.0 0.00 0.00 0.00 43 1019.0
20260501190036 60 329 4.0 12.0 0.00 0.00 0.00 44 1019.0
20260501185535 59 355 3.0 14.0 0.00 0.00 0.00 43 1019.0
20260501185036 61 315 5.0 14.0 0.00 0.00 0.00 42 1019.1
20260501184535 60 288 2.0 10.0 0.00 0.00 0.00 42 1019.0
20260501184035 60 322 4.0 13.0 0.00 0.00 0.00 39 1019.0
20260501183535 60 309 6.0 13.0 0.00 0.00 0.00 40 1019.1
20260501183045 61 247 3.0 10.0 0.00 0.00 0.00 41 1019.1
20260501182534 60 279 2.0 9.0 0.00 0.00 0.00 45 1019.1
20260501182037 60 311 5.0 13.0 0.00 0.00 0.00 39 1019.1
20260501181538 60 304 5.0 13.0 0.00 0.00 0.00 45 1019.1
20260501181033 60 314 4.0 9.0 0.00 0.00 0.00 45 1018.9
20260501180633 60 311 1.0 6.0 0.00 0.00 0.00 42 1019.0
20260501180100 60 296 2.0 6.0 0.00 0.00 0.00 45 1019.0
20260501175600 60 296 1.0 9.0 0.00 0.00 0.00 39 1018.9
20260501175059 59 19 5.0 10.0 0.00 0.00 0.00 41 1018.9
20260501174559 59 330 5.0 10.0 0.00 0.00 0.00 37 1019.1
20260501174057 59 28 3.0 9.0 0.00 0.00 0.00 38 1019.1
20260501173557 59 195 2.0 6.0 0.00 0.00 0.00 38 1019.3
20260501173056 58 18 1.0 4.0 0.00 0.00 0.00 37 1019.4
20260501172555 57 284 0.0 10.0 0.00 0.00 0.00 37 1019.4
20260501172054 58 331 3.0 10.0 0.00 0.00 0.00 36 1019.4
20260501171555 59 5 3.0 6.0 0.00 0.00 0.00 47 1019.4
20260501171052 58 180 2.0 9.0 0.00 0.00 0.00 39 1019.5
20260501170651 58 52 3.0 9.0 0.00 0.00 0.00 44 1019.5
20260501170100 58 100 2.0 5.0 0.00 0.00 0.00 43 1019.6